[Iaude] MPEC K104: 2024 KM [a=2.54,e=0.77,i=7.9,H=22.7]

mpec at cfa.harvard.edu mpec at cfa.harvard.edu
Tue May 28 07:31:49 EDT 2024


M.P.E.C. 2024-K104                                 Issued 2024 May 28, 11:29 UT

     The Minor Planet Electronic Circulars contain information on unusual
         minor planets, routine data on comets and natural satellites,
         and occasional editorial announcements.  They are published
    on behalf of Division F of the International Astronomical Union by the
          Minor Planet Center, Smithsonian Astrophysical Observatory,
                          Cambridge, MA 02138, U.S.A.
			  
             Prepared using the Tamkin Foundation Computer Network

                              MPC at CFA.HARVARD.EDU
            URL https://www.minorplanetcenter.net/    ISSN 1523-6714

                                    2024 KM                                     


Observations:
     K24K00M*1C2024 05 26.35922416 29 16.195+34 16 49.51         20.57GVEK104G96
     K24K00M 1C2024 05 26.36442016 29 15.828+34 17 51.61         20.71GVEK104G96
     K24K00M 1C2024 05 26.36961916 29 15.450+34 18 54.07         20.91GVEK104G96
     K24K00M 1C2024 05 26.37481616 29 15.054+34 19 55.70         21.30GVEK104G96
     K24K00M KC2024 05 26.39758916 29 13.304+34 24 28.69         20.97GVEK104I52
     K24K00M KC2024 05 26.40061516 29 13.038+34 25 04.51         20.58GVEK104I52
     K24K00M KC2024 05 26.40365016 29 12.851+34 25 41.48         20.87GVEK104I52
     K24K00M KC2024 05 26.40668016 29 12.628+34 26 17.09         20.45GVEK104I52
     K24K00M 6C2024 05 27.03349716 28 36.356+36 35 39.94         21.2 GVEK104Z84
     K24K00M 6C2024 05 27.04877016 28 35.084+36 38 53.02         20.3 GVEK104Z84
     K24K00M KC2024 05 27.19120416 28 29.168+37 09 14.44         20.29GVEK104I52
     K24K00M KC2024 05 27.19422716 28 28.895+37 09 53.93         20.80GVEK104I52
     K24K00M KC2024 05 27.19725916 28 28.628+37 10 33.28         20.63GVEK104I52
     K24K00M KC2024 05 27.20029816 28 28.391+37 11 12.66         21.20GVEK104I52
     K24K00M KC2024 05 27.20582416 28 27.67 +37 12 24.1          20.9 GXEK104858
     K24K00M KC2024 05 27.21532316 28 26.83 +37 14 27.3          21.0 GXEK104858
     K24K00M KC2024 05 27.22373716 28 26.08 +37 16 17.1          20.7 GXEK104858
     K24K00M  C2024 05 27.28761116 28 20.596+37 30 07.30         20.9 GVEK104H01
     K24K00M  C2024 05 27.29141316 28 20.251+37 30 56.73         21.0 GVEK104H01
     K24K00M  C2024 05 27.30185316 28 19.317+37 33 12.30         20.6 GVEK104H01
     K24K00M  C2024 05 27.30899816 28 18.676+37 34 45.23         20.6 GVEK104H01
     K24K00M KB2024 05 27.96780016 27 32.54 +40 01 16.1          19.9 GXEK104958
     K24K00M KB2024 05 27.97563616 27 31.83 +40 03 04.0          19.7 GXEK104958
     K24K00M KB2024 05 27.98343016 27 31.11 +40 04 50.4                XEK104958
     K24K00M  C2024 05 28.29883116 27 05.599+41 18 06.62         20.4 GVEK104H01
     K24K00M  C2024 05 28.30310416 27 05.139+41 19 06.55         20.9 GVEK104H01
     K24K00M  C2024 05 28.31325816 27 04.055+41 21 29.62         21.0 GVEK104H01
     K24K00M  C2024 05 28.32028216 27 03.303+41 23 08.41         20.7 GVEK104H01

Observer details:
858 Tebbutt Observatory, Edgewood.  Observer F. B. Zoltowski.  0.51-m f/8.1
    Schmidt-Cassegrain + CCD.
958 Observatoire de Dax.  Observer P. Dupouy.  0.50-m f/4.5 Reflector + CMO.
G96 Mt. Lemmon Survey.  Observer K. W. Wierzchos.  Measurers T. Beuden, V. F.
    Carvajal, D. Fay, J. B. Fazekas, D. C. Fuls, A. R. Gibbs, A. D. Grauer, H.
    Groeller, J. K. Hogan, R. A. Kowalski, S. M. Larson, G. J. Leonard, D.
    Rankin, R. L. Seaman, F. C. Shelly, K. W. Wierzchos.  1.5-m reflector +
    10K CCD.
H01 Magdalena Ridge Observatory, Socorro.  Observers W. H. Ryan, E. V. Ryan.
    Measurer W. H. Ryan.  2.4-m f/8.9 Ritchey-Chretien + CCD.
I52 Steward Observatory, Mt. Lemmon Station.  Observer R. A. Kowalski.
    Measurers T. Beuden, V. F. Carvajal, D. Fay, J. B. Fazekas, D. C. Fuls, A.
    R. Gibbs, A. D. Grauer, H. Groeller, J. K. Hogan, R. A. Kowalski, S. M.
    Larson, G. J. Leonard, D. Rankin, R. L. Seaman, F. C. Shelly, K. W.
    Wierzchos.  1.0-m prime focus + CCD.
Z84 Calar Alto-Schmidt.  Observers M. Micheli, R. Kresken.  Measurers R.
    Kresken, M. Micheli, F. Ocana, L. Conversi.  0.8-m f/3 Schmidt + CCD.

Orbital elements:
2024 KM                                                  Earth MOID = 0.1295 AU
Epoch 2024 Mar. 31.0 TT = JDT 2460400.5                 Veres                   
M 333.17076              (2000.0)            P               Q                  
n   0.24316616     Peri.  167.85221     +0.94694872     +0.32099566             
a   2.5421468      Node   173.36041     -0.30512544     +0.91340061             
e   0.7730944      Incl.    7.85841     -0.10092866     +0.25032202             
P   4.05           H   22.71          G   0.15           U   9                  
Residuals in seconds of arc
240526 G96  0.4-  0.3+    240527 I52  0.3+  0.2-    240527 H01  0.0   0.1+
240526 G96  0.0   0.2+    240527 I52  0.0   0.0     240527 958  0.6+  0.4-
240526 G96  0.3+  0.4+    240527 I52  0.2-  0.0     240527 958  1.2+  0.3-
240526 G96  0.3+  0.2-    240527 I52  0.1-  0.1-    240527 958  1.6+  1.1-
240526 I52  0.0   0.0     240527 858  0.3+  0.4+    240528 H01  0.0   0.1+
240526 I52  0.4-  0.4-    240527 858  0.1-  0.3+    240528 H01  0.0   0.1-
240526 I52  0.1+  0.2+    240527 858  0.5-  0.8+    240528 H01  0.0   0.0
240526 I52  0.1+  0.5-    240527 H01  0.1+  0.1+    240528 H01  0.0   0.1-
240527 Z84  0.2-  0.2+    240527 H01  0.0   0.1+
240527 Z84  0.1+  0.6-    240527 H01  0.0   0.0

Ephemeris:
2024 KM                  a,e,i = 2.54, 0.77, 8                   q = 0.5768
Date    TT    R. A. (2000) Decl.     Delta      r    Elong.  Phase     V
2024 04 28    16 31 03.4 -03 40 39   0.5324  1.4802   146.5    22.0    23.3
...
2024 05 13    16 34 02.7 +07 30 41   0.3212  1.2948   148.3    24.2    21.9
...
2024 05 21    16 32 35.0 +19 57 53   0.2276  1.1924   138.6    34.1    21.3
...
2024 05 27    16 28 39.0 +36 28 25   0.1722  1.1144   122.2    50.3    21.0
2024 05 28    16 27 29.3 +40 08 32   0.1648  1.1013   118.4    54.0    21.0
2024 05 29    16 26 04.0 +44 06 45   0.1583  1.0882   114.3    58.1    21.0
...
2024 06 04    15 58 56.6 +73 15 04   0.1384  1.0094    84.0    88.2    21.5
...
2024 06 12    05 07 53.7 +69 07 31   0.1718  0.9047    46.0   126.1    24.0
...
2024 06 27    04 52 37.8 +38 21 21   0.3404  0.7210    24.6   144.1    27.1

M. P. C. Staff               (C) Copyright 2024 MPC           M.P.E.C. 2024-K104





More information about the Iaude mailing list